Weather History for HEGN - September, 2013

Change the Weather History Date:

Tuesday, September 24, 2013

  Actual Average Record
Temperature  
Mean Temperature 86 °F -  
Max Temperature 94 °F 86 °F 99 °F (2014)
Min Temperature 77 °F 72 °F 75 °F (2007)
Cooling Degree Days 20    
Growing Degree Days 36 (Base 50)    
Moisture  
Dew Point 58 °F    
Average Humidity 38    
Maximum Humidity 57    
Minimum Humidity 20    
Precipitation  
Precipitation 0.00 in - - ()
Sea Level Pressure  
Sea Level Pressure 29.85 in    
Wind  
Wind Speed 16 mph ()    
Max Wind Speed 28 mph    
Max Gust Speed -    
Visibility 6.0 miles    
Events      
Averages and records for this station are not official NWS values.
T = Trace of Precipitation, MM = Missing Value Source: Averaged Metar Reports

Daily Weather History Graph

Daily Weather History Graph

Search for Another Location

Airport or City:

Trip Planner

Search our weather history database for the weather conditions in past years. The results will help you decide how hot, cold, wet, or windy it might be!

Date:

Astronomy

Sep. 24, 2013 Rise Set
Actual Time 5:34 AM EET 5:39 PM EET
Civil Twilight 5:10 AM EET 6:02 PM EET
Nautical Twilight 4:43 AM EET 6:29 PM EET
Astronomical Twilight 4:16 AM EET 6:56 PM EET
Moon 9:07 PM EET (9/24) 10:03 AM EET (9/24)
Length of Visible Light 12h 51m
Length of Day
12h 04m
Waning Gibbous, 75% of the Moon is Illuminated
Sep 24
Waning Gibbous
Sep 27
Last Quarter
Oct 5
New
Oct 12
First Quarter
Oct 19
Full

Hourly Weather History & Observations

Time (EET) Temp. Heat Index Dew Point Humidity Pressure Visibility Wind Dir Wind Speed Gust Speed Precip Events Conditions
12:00 AM 84.2 °F 83.5 °F 57.2 °F 40% 29.83 in - WNW 8.1 mph - N/A   Clear
1:00 AM 84.2 °F 83.8 °F 59.0 °F 42% 29.83 in - NW 17.3 mph - N/A   Clear
2:00 AM 84 °F - 57 °F 30% 29.83 in 6 mi NW 16.1 mph - -  
2:00 AM 84.2 °F 83.5 °F 57.2 °F 40% 29.83 in - NW 16.1 mph - N/A   Clear
3:00 AM 82.4 °F 81.4 °F 53.6 °F 37% 29.83 in - NNW 19.6 mph - N/A   Clear
4:00 AM 82.4 °F 82.5 °F 59.0 °F 45% 29.83 in - NW 15.0 mph - N/A   Clear
5:00 AM 78.8 °F - 60.8 °F 54% 29.83 in - NW 11.5 mph - N/A   Clear
6:00 AM 77.0 °F - 60.8 °F 57% 29.86 in - WNW 13.8 mph - N/A   Clear
7:00 AM 78.8 °F - 60.8 °F 54% 29.86 in - WNW 18.4 mph - N/A   Clear
8:00 AM 82 °F - 60 °F 38% 29.89 in 6 mi WNW 18.4 mph - -  
8:00 AM 82.4 °F 82.9 °F 60.8 °F 48% 29.89 in - WNW 18.4 mph - N/A   Clear
9:00 AM 86.0 °F 85.4 °F 59.0 °F 40% 29.89 in - NW 17.3 mph - N/A   Clear
10:00 AM 89.6 °F 88.9 °F 59.0 °F 36% 29.86 in - NNW 11.5 mph - N/A   Clear
11:00 AM 91.4 °F 89.4 °F 55.4 °F 29% 29.86 in - North 19.6 mph - N/A   Clear
12:00 PM 93.2 °F 90.8 °F 53.6 °F 26% 29.86 in - North 25.3 mph - N/A   Clear
1:00 PM 93.2 °F 90.8 °F 53.6 °F 26% 29.83 in - North 23.0 mph - N/A   Clear
2:00 PM 92 °F - 56 °F 20% 29.83 in 6 mi North 26.5 mph - -  
2:00 PM 93.2 °F 91.9 °F 57.2 °F 30% 29.83 in - North 26.5 mph - N/A   Clear
3:00 PM 93.2 °F - 51.8 °F 24% 29.83 in - North 27.6 mph - N/A   Clear
4:00 PM 91.4 °F 89.4 °F 55.4 °F 29% 29.83 in - North 25.3 mph - N/A   Clear
5:00 PM 89.6 °F 88.9 °F 59.0 °F 36% 29.83 in - NNW 25.3 mph - N/A   Clear
6:00 PM 86.0 °F 85.4 °F 59.0 °F 40% 29.83 in - NNW 20.7 mph - N/A   Clear
7:00 PM 87.8 °F 86.1 °F 55.4 °F 33% 29.86 in - ESE 23.0 mph - N/A   Clear
8:00 PM 86 °F - 59 °F 30% 29.88 in 6 mi NW 20.7 mph - -  
8:00 PM 86.0 °F 85.4 °F 59.0 °F 40% 29.86 in - NW 20.7 mph - N/A   Clear
9:00 PM 84.2 °F 83.8 °F 59.0 °F 42% 29.89 in - NW 19.6 mph - N/A   Clear
10:00 PM 84.2 °F 83.5 °F 57.2 °F 40% 29.92 in - West 17.3 mph - N/A   Clear
11:00 PM 82.4 °F 83.4 °F 62.6 °F 51% 29.92 in - WNW 16.1 mph - N/A   Clear